CZ-6A DEB, 54974

Orbit data source: Space-Track

CZ-6A DEB, 54974 is space debris in SSO originally from a launch on Fri, 11 Nov 2022 UTC launched from the Taiyaun Space Center, China (TSC). Debris objects in space refer to the collection of defunct objects orbiting the Earth. Examples of debris include non-operational satellites, rocket bodies, and fragments generated from explosions, collisions, or faulty payload assembly.

Loading next visibility...
Identifier
54974, 2022-151TP
Orbit
SSO
Country
Flag of CNCN / PRC
Related business
Manufacturer
SAST
Mission
Spacecraft
Bus & Motor
Unknown
Mass
Unknown
Launch date (UTC)
2022-11-11 (4 years ago)
Launch vehicle
Unknown
Launch site
Taiyaun Space Center, China (TSC)
Object type
Payload
Rocket body
Debris
Shape & HBR
Unknown shape, 0.1 m
Radar Cross Section
Small (<0.1 m²)

Expand to show TLE details & history
Last TLE update: 3 days ago

TLE from 3 days ago
0 CZ-6A DEB
1 54974U 22151TP  26261.10653636  .00003197  00000-0  67213-3 0  9999
2 54974  98.6204 318.3277 0088136  35.6550 325.0491 14.57903421202498
Epoch: 2026-09-18T02:33Z
TLE epoch observation values (Epoch: 2026-09-18T02:33:24.741Z)
Latitude
-0.00005°
Longitude
-77.05956°
Altitude
651.961 km
Speed
7.559 km/s
True Right ascension
21h 13m 18s
True Declination
0° 00' 00"
Sunlit
Object was in full shadow at epoch
Visualization orbit readout
Latitude
Unknown
Longitude
Unknown
Altitude
Unknown
Speed
Unknown
Apparent Right ascension
Unknown
Apparent Declination
Unknown
Sunlit
N/A
Visualization observer readout
Local Sidereal Time
17:09:29
Azimuth
Unknown
Elevation
Unknown
Doppler factor
Unknown
Orbital elements
Apogee altitude
759.413 km
Perigee altitude
634.697 km
Semi-major axis
7,075.192 km
Eccentricity
0.00881
Inclination
98.6204°
RAAN
318.3277°
Arg. of periapsis
35.655°
True anomaly
324.46526°
Mean anomaly
325.0491°
Eccentric anomaly
324.75771°
Mean motion
3.647 °/min
Orbital period
98.71 mins
BSTAR
0.00067213
Loading maneuver chart data...
Computing Atmospheric mass density...

Documentation

Showing up to 5 results
|